Location: Chicago
(41.8500°N, 87.6500°W)
Time: 23:12:36
(UTC-06:00)

ISS - Visible Passes

Search period start: 22 December 2014 00:00
Search period end: 01 January 2015 00:00
Orbit: 404 x 414 km, 51.6° (Epoch: 22 December)

Date Brightness Start Highest point End Pass type
(mag) Time Alt. Az. Time Alt. Az. Time Alt. Az.
22 Dec -2.1 17:38:56 10° NW 17:41:45 25° NNE 17:42:17 24° NE visible
23 Dec -2.3 18:24:25 10° NW 18:26:41 41° NW 18:26:41 41° NW visible
24 Dec -3.0 17:33:35 10° NW 17:36:46 46° NNE 17:38:28 23° E visible
24 Dec 0.0 19:10:34 10° W 19:11:16 14° W 19:11:16 14° W visible
25 Dec -2.1 18:19:16 10° WNW 18:22:22 40° SW 18:23:18 31° S visible
26 Dec -3.2 17:28:11 10° WNW 17:31:28 76° SW 17:34:44 10° SE visible
27 Dec -0.3 18:14:35 10° W 18:16:42 16° SW 18:18:48 10° S visible
28 Dec -1.1 17:22:56 10° WNW 17:25:49 29° SW 17:28:42 10° SSE visible
30 Dec 0.3 17:18:33 10° WSW 17:19:51 12° SW 17:21:08 10° SSW visible
